www.pogodaiklimat.ru

Погода и климат >> Архив погоды >> Доминиканская Республика >> La Romana Int Airport


ПОГОДА в La Romana Int Airport

  • Прогноз погоды в La Romana Int Airport
  • Монитор погоды в La Romana Int Airport
  • Климат города

АРХИВ ПОГОДЫ в La Romana Int Airport

Время (UTC), дата Ветер
(напр.,м/с)
 
Видим.   Явления Облачность Т
(С)
Тd
(С)
f
(%)
Тe
(С)
Тes
(С)
Комфортность P
(гПа)
Po
(гПа)
Тmin
(С)
Tmax
(С)
R
(мм)
R24
(мм)
S
(см)
03 14.05 штиль 0 16 км 6/4 480 м
[Sc Cs]
+23.0 +22.7 98 +32 +32 очень
душно
1017.5 1018.0
12 14.05 штиль 0 16 км 6/4 540 м
[Cu med, cong Cs]
+25.8 +22.8 84 +34 +37 очень
душно
1017.0 1017.0 +25.5 +30.0
15 14.05 ЮВ 6 16 км 8/4 600 м
[Cu med, cong Cs]
+29.3 +23.7 72 +40 +44 очень
душно
1018.0 1018.0
18 14.05 ЮВ 8 16 км 8/5 660 м
[Cu med, cong Ci fib]
+31.1 +24.0 66 +43 +44 опасность
перегрева
1016.5 1017.0 +22.5 +32.0
21 14.05 ЮВ 7 16 км 8/5 600 м
[Cb cap Ci fib]
+30.1 +23.2 67 +41 +41 опасность
перегрева
1015.0 1015.0
00 15.05 ЮВ 3 16 км 8/6 540 м
[Cb cap Ci fib]
+25.6 +22.6 84 +34 +34 очень
душно
1016.2 1016.0 +22.5 +32.0
03 15.05 штиль 0 16 км {дождь} 8/6 480 м
[Cb cap As op]
+22.4 +22.1 98 +30 +30 очень
душно
1018.0 1018.0 0.8
12 15.05 штиль 0 16 км {дождь} 9/5 300 м
[Cb cap As op Cs]
+24.4 +22.7 90 +32 +34 очень
душно
1017.0 1017.0 +21.6 +32.0 1
15 15.05 ЮВ 3 16 км 9/6 540 м
[Cb cap Cs]
+29.4 +23.8 72 +40 +46 очень
душно
1018.6 1019.0
18 15.05 ЮВ 6 16 км 8/5 660 м
[Cu Sc Cs]
+30.1 +23.5 68 +41 +44 опасность
перегрева
1017.5 1018.0 +21.6 +31.4
21 15.05 ЮВ 7 16 км 8/6 540 м
[Cb cap Cs]
+30.0 +22.3 63 +39 +39 очень
душно
1016.4 1016.0
00 16.05 В 2 16 км 6/5 540 м
[Cu Sc Cs]
+25.6 +21.8 80 +33 +33 очень
душно
1017.4 1017.0 +21.6 +31.4
03 16.05 штиль 0 16 км 4/4 540 м
[Cu med, cong]
+23.1 +21.5 91 +31 +31 очень
душно
1018.8 1019.0
12 16.05 штиль 0 16 км 8/4 480 м
[Cu med, cong Ac trans Ci fib]
+24.5 +22.7 90 +32 +34 очень
душно
1017.0 1017.0 +21.8 +31.4
15 16.05 В 6 16 км 9/5 600 м
[Cb cap Ac trans Ci fib]
+29.5 +20.3 58 +36 +38 очень
душно
1017.8 1018.0
18 16.05 В 3 16 км 9/5 600 м
[Cb cap Ac trans]
+30.9 +19.6 51 +37 +41 очень
душно
1016.7 1017.0 +21.8 +31.5
21 16.05 СВ 3 16 км 9/5 600 м
[Cb cap Ac trans Ci fib]
+30.9 +21.6 58 +39 +40 очень
душно
1015.4 1015.0
00 17.05 В 3 16 км 9/6 540 м
[Cb cap Ac trans]
+25.3 +21.8 81 +33 +33 очень
душно
1016.5 1017.0 +21.8 +31.5
03 17.05 штиль 0 16 км 9/6 420 м
[Cb cap Ac trans]
+22.5 +22.2 98 +30 +30 очень
душно
1018.0 1018.0
12 17.05 ЮВ 4 16 км {гроза} 9/6 420 м
[Cb cap Ac trans]
+24.6 +24.3 98 +34 +35 очень
душно
1017.5 1018.0 +21.3 +31.5
15 17.05 СВ 5 16 км 9/6 600 м
[Cb cap Ac trans]
+28.7 +22.9 71 +38 +40 очень
душно
1017.6 1018.0
00 18.05 В 3 16 км 8/5 480 м
[Cb cap Ac trans]
+25.4 +21.8 80 +33 +33 очень
душно
1016.0 1016.0 +21.3 +31.0
03 18.05 штиль 0 16 км 9/6 420 м
[Cb cap Ac trans]
+23.3 +21.6 90 +31 +31 очень
душно
1017.5 1018.0
12 18.05 штиль 0 16 км 9/5 480 м
[Cb cap Ac trans Ci]
+24.0 +23.7 98 +33 +34 очень
душно
1016.5 1017.0 +21.6 +31.0
15 18.05 В 6 16 км 8/5 660 м
[Cu med, cong Ac trans Ci]
+28.7 +21.8 66 +37 +39 очень
душно
1017.2 1017.0
18 18.05 ЮВ 8 16 км 6/5 660 м
[Cu med, cong Ci]
+31.2 +21.8 57 +40 +41 очень
душно
1016.0 1016.0 +21.6 +31.8
21 18.05 В 8 8000 м осадки на расстоянии 8/6 660 м
[Cu med, cong Ci]
+27.1 +20.6 68 +34 +34 очень
душно
1015.1 1015.0
00 19.05 В 4 8000 м осадки на расстоянии 8/6 540 м
[Cu Sc Ac trans Ci]
+24.1 +21.1 83 +30 +30 очень
душно
1016.2 1016.0 +21.6 +31.8
12 19.05 штиль 0 16 км 3/3 300 м
[Cu Sc]
+25.0 +24.4 96 +35 +39 очень
душно
1018.0 1018.0 +21.2 +31.8 1
15 19.05 В 6 16 км 4/4 660 м
[Cu med, cong]
+30.4 +21.5 59 +38 +43 очень
душно
1018.2 1018.0
18 19.05 В 7 16 км 5/5 660 м
[Cu med, cong]
+31.6 +21.6 55 +40 +42 очень
душно
1017.0 1017.0 +21.2 +32.5
21 19.05 ЮВ 8 8000 м в посл. час ливневой дождь 6/6 540 м
[Cu med, cong]
+25.8 +21.6 78 +33 +33 очень
душно
1016.4 1016.0 0.8
00 20.05 СВ 4 8000 м осадки на расстоянии {ливн. осадки} 6/5 540 м
[Cu med, cong Ci]
+23.0 +22.6 98 +32 +32 очень
душно
1017.7 1018.0 +21.2 +32.5
03 20.05 СВ 4 16 км 5/4 540 м
[Cu med, cong Ci]
+22.3 +22.0 98 +30 +30 очень
душно
1018.5 1019.0
12 20.05 В 6 16 км 4/3 480 м
[Cu med, cong Cs]
+25.6 +23.9 90 +35 +36 очень
душно
1018.2 1018.0 +22.0 +32.5
15 20.05 В 3 16 км 4/4 600 м
[Cu med, cong]
+30.2 +21.6 60 +38 +48 очень
душно
1018.5 1019.0
18 20.05 В 4 16 км 5/5 600 м
[Cb cap]
+30.4 +21.9 60 +39 +45 очень
душно
1017.0 1017.0 +22.0 +32.0
21 20.05 ЮВ 3 16 км {дождь} 5/5 600 м
[Cb cap Cs]
+29.0 +23.0 70 +39 +41 очень
душно
1016.5 1017.0
00 21.05 В 5 16 км 6/5 540 м
[Cb cap Cs]
+25.0 +22.2 84 +32 +32 очень
душно
1017.0 1017.0 +22.0 +32.0

 

Местоположение метеостанции La Romana Int Airport (Доминиканская Республика): широта 18.45 долгота -68.92 высота над уровнем моря 94 м.

В архиве по умолчанию представлена погода в La Romana Int Airport за последнюю неделю. Архивные данные за месяц целиком и за предыдущие месяцы, начиная с января 2011 года, Вы можете получить, выбрав интересующий диапазон дат из раскрывающегося списка и нажав кнопку "Ввод!".


*Определитесь, кто Вы:
робот инопланетянин человек

Внимание! Время в таблицах - всемирное. Для получения местного времени необходимо прибавить поправку, которая в La Romana Int Airport равна -4 ч.

Смотрите также архив погоды в соседних городах и на ближайших метеорологических станциях:

Погода в Punta Cana (Доминиканская Республика) (61 км)
Погода в Las Americas (Доминиканская Республика) (78 км)
Погода в Sabana De La Mar (Доминиканская Республика) (82 км)
Погода в Santo Domingo (Доминиканская Республика) (101 км)
Погода в Santiago (Доминиканская Республика) (218 км)
Погода в Puerto Plata (Доминиканская Республика) (224 км)
Погода в Barahona (Доминиканская Республика) (232 км)
Погода в Charlotte Amalie St. Thomas (Виргинские Острова) (418 км)
Погода в Punta de Maisi (Куба) (584 км)
Погода в Juliana Airport (Нидерландские Антилы) (616 км)

Пояснения к столбцам:

Ветер - указаны скорость ветра в м/с - средняя за 10 мин, порывы в срок и между сроками (в фигурных скобках) и направление, откуда дует ветер: С - северный, СВ - северо-восточный, В - восточный, ЮВ - юго-восточный, Ю - южный, ЮЗ - юго-западный, З - западный, СЗ - северо-западный.
Видимость - горизонтальная дальность видимости в метрах или километрах. При видимости от 1 до 10 км при отсутствии осадков обычно наблюдается дымка, при ухудшении видимости до 1 км и менее - туман. В сухую погоду видимость может ухудшаться дымом, пылью или мглою.
Явления - указаны атмосферные явления, наблюдавшиеся в срок или в последний час перед сроком; фигурными скобками обозначены явления, наблюдавшиеся между сроками (за 1-3 часа до срока); квадратными скобками обозначены град или гололедные отложения с указанием их диаметра в мм.
Облачность - указаны через наклонную черту общая и нижняя облачность в баллах и высота нижней границы облаков в метрах; квадратными скобками обозначены формы облаков: Ci - перистые, Cs - перисто-слоистые, Cc - перисто-кучевые, Ac - высококучевые, As - высокослоистые, Sc - слоисто-кучевые, Ns - слоисто-дождевые, Cu - кучевые, Cb - кучево-дождевые. Подробнее классификацию облаков см. в Атласе облаков (PDF).
T - Температура воздуха - температура, измеренная на высоте 2 м над землей.
Td - Температура точки росы - температура, при понижении до которой содержащийся в воздухе водяной пар достигнет насыщения.
f - Относительная влажность воздуха - влажноcть воздуха, измеренная на высоте 2 м над землей.
Te - Эффективная температура - температура, которую ощущает одетый по сезону человек в тени. Характеристика душности погоды. При расчете учитывается влияние влажности воздуха и скорости ветра на теплоощущения человека.
Tes - Эффективная температура на солнце - температура, которую ощущает человек, с поправкой на солнечный нагрев. Характеристика знойности погоды. Зависит от высоты солнца над горизонтом, облачности и скорости ветра. Ночью, в пасмурную погоду, а также при ветре 12 м/с и более поправка равна нулю.
P - Атмосферное давление - приведенное к уровню моря атмосферное давление.
Po - Атмосферное давление - измеренное на уровне метеостанции атмосферное давление.
Tmin - Минимальная температура - минимум температуры воздуха на высоте 2 м над землей.
Tmax - Максимальная температура - максимум температуры воздуха на высоте 2 м над землей.
R - Количество осадков - Количество выпавших осадков за период времени, мм. При наведении курсора мыши на число - период времени, за который выпало указанное количество осадков.
R24 - Количество осадков - Количество выпавших осадков за 24 часа, мм.
S - Снежный покров - Высота снежного покрова, см. При наведении курсора мыши на число - состояние снежного покрова и степень покрытия местности в баллах.